Preview of NWS' New Version of Forecast
This preview is not operational and should not be used for support decisions.

Regional Weather Roundup (RWR)

Issued by National Weather Service (NWS)

                            
000
ASCA42 TJSJ 171810
RWRPR 
PUERTO RICO/U.S. VIRGIN ISLANDS HOURLY WEATHER ROUNDUP
NATIONAL WEATHER SERVICE SAN JUAN PR
200 PM AST WED APR 17 2019

PRZ001>002-007>008-010-171900-
PUERTO RICO
  
CITY           SKY/WX    TMP DP  RH WIND       PRES   REMARKS
SAN JUAN LMM   MOSUNNY   84  72  65 E20       29.98F                  
AGUADILLA      MOSUNNY   82  72  69 E25G31    30.00                   
CEIBA            N/A    N/A N/A N/A MISG      30.01F                  
$$

VIZ001>002-171900-
U.S. VIRGIN ISLANDS
  
CITY           SKY/WX    TMP DP  RH WIND       PRES   REMARKS
CHARLOTTE AMA  MOSUNNY   84  68  58 SE16      29.98F                  
CHRISTIANSTED  MOSUNNY   86  64  48 E17G25    29.99F                  
$$

HOURLY WEATHER ROUNDUP FOR THE NEWS MEDIA
  
CITY           SKY/WX    TMP DP  RH WIND       PRES   REMARKS
ORLANDO        PTSUNNY   83  60  45 E14       30.11F                  
NEW YORK       PTSUNNY   56  30  37 S10       30.20R                  
NEWARK         PTSUNNY   58  28  32 SE9       30.17S                  
CHICAGO        PTSUNNY   68  54  60 VRB6      29.78F                  
HARTFORD       FAIR      57  30  35 SE13      30.14R                  
BOSTON         FAIR      56  27  32 SE15      30.15R                  
DALLAS         CLOUDY    74  68  81 E12       29.79F                  
PHILADELPHIA   CLOUDY    59  39  47 E7        30.15F                  
LOS ANGELES    MOSUNNY   69  49  48 VRB3      30.15R                  
WASHINGTON DC  CLOUDY    71  45  39 VRB5      30.08S